sat.trackr.live / text

‹ back to catalog

STARLINK-34739

NORAD 65066 · 2025-165L

PAYLOAD ACTIVE UNKNOWN

§ Identity

Operator
Country
US
Launch date
2025-07-31
Launch site
AFWTR
Launch vehicle
Mass (kg)
RCS (m²)

Purposes: comms

External: N2YO · Heavens-Above · Gunter

§ Orbital elements

Epoch: 2026-09-20T22:00:03.000096Z

Period
93.91 min
Inclination
97.2855°
Eccentricity
0.0001763
Mean motion
15.33399349 rev/d
Perigee alt
464.5 km
Apogee alt
466.9 km
Semi-major
6,843.8 km
B*
-1.0186e-3
RAAN
335.0287°
Arg perigee
96.7125°
Mean anomaly
209.0471°
Rev number
564

§ Raw data

STARLINK-347391 65066U 25165L   26263.91670139 -.00032770  00000+0 -10186-2 0  99952 65066  97.2855 335.0287 0001763  96.7125 209.0471 15.33399349  5643

JSON: /api/v1/satellites/65066 · /tle

For live sub-satellite position, see the globe view (requires WebGL).

§ Visibility from observer

Set your observer location to see the next 7 days of passes ≥ 10°. The values pass through the URL so the page stays shareable.

No JS? Fill the form by hand. The geolocation button needs JavaScript.